Weather History for Cambridge, MD

Change the Weather History Date:

Wednesday, February 13, 2013

  Actual Average (KESN) Record (KESN)
Temperature  
Mean Temperature 42 °F -  
Max Temperature 48 °F 48 °F 70 °F (1951)
Min Temperature 35 °F 29 °F 7 °F (1967)
Degree Days  
Heating Degree Days 24    
Moisture  
Dew Point 34 °F    
Average Humidity 80    
Maximum Humidity 100    
Minimum Humidity 61    
Precipitation  
Precipitation 0.00 in - - ()
Sea Level Pressure  
Sea Level Pressure 29.78 in    
Wind  
Wind Speed 6 mph (NE)    
Max Wind Speed 12 mph    
Max Gust Speed 18 mph    
Visibility 8 miles    
Events      
Averages and records for this station are not official NWS values.
T = Trace of Precipitation, MM = Missing Value Source: NWS Daily Summary

Daily Weather History Graph

Daily Weather History Graph

Search for Another Location

Airport:

Trip Planner

Search our weather history database for the weather conditions in past years. The results will help you decide how hot, cold, wet, or windy it might be!

Date:

Astronomy

Feb. 13, 2013 Rise Set
Actual Time 6:56 AM EST 5:40 PM EST
Civil Twilight 6:29 AM EST 6:07 PM EST
Nautical Twilight 5:58 AM EST 6:38 PM EST
Astronomical Twilight 5:27 AM EST 7:09 PM EST
Moon 8:28 AM EST (2/13) 9:36 PM EST (2/13)
Length of Visible Light 11h 37m
Length of Day
10h 43m
Waxing Crescent, 13% of the Moon is Illuminated
Feb 13
Waxing Crescent
Feb 17
First Quarter
Feb 25
Full
Mar 4
Last Quarter
Mar 11
New

Hourly Weather History & Observations

Time (EST) Temp. Windchill Dew Point Humidity Pressure Visibility Wind Dir Wind Speed Gust Speed Precip Events Conditions
12:06 AM 41.0 °F 38.0 °F 32.0 °F 70% 29.93 in 10.0 mi ESE 4.6 mph - N/A   Clear
12:26 AM 41.0 °F 39.0 °F 32.0 °F 70% 29.94 in 10.0 mi ESE 3.5 mph - N/A   Clear
12:46 AM 41.0 °F 38.0 °F 32.0 °F 70% 29.94 in 10.0 mi ENE 4.6 mph - N/A   Clear
1:06 AM 41.0 °F 39.0 °F 32.0 °F 70% 29.94 in 10.0 mi NE 3.5 mph - N/A   Clear
1:26 AM 41.0 °F 38.0 °F 32.0 °F 70% 29.95 in 10.0 mi NNE 4.6 mph - N/A   Clear
1:46 AM 41.0 °F 37.1 °F 33.8 °F 76% 29.95 in 10.0 mi NNE 5.8 mph - N/A   Clear
2:06 AM 37.4 °F 32.1 °F 32.0 °F 81% 29.93 in 10.0 mi NNE 6.9 mph - N/A   Clear
2:26 AM 37.4 °F 32.8 °F 32.0 °F 81% 29.92 in 10.0 mi NE 5.8 mph - N/A   Clear
2:46 AM 37.4 °F 31.4 °F 32.0 °F 81% 29.91 in 10.0 mi NE 8.1 mph - N/A   Clear
3:06 AM 37.4 °F 32.1 °F 30.2 °F 75% 29.90 in 10.0 mi NE 6.9 mph - N/A   Clear
3:26 AM 37.4 °F 32.1 °F 30.2 °F 75% 29.89 in 10.0 mi NE 6.9 mph - N/A   Clear
3:46 AM 37.4 °F 32.1 °F 30.2 °F 75% 29.89 in 10.0 mi ENE 6.9 mph - N/A   Clear
4:06 AM 37.4 °F 31.4 °F 32.0 °F 81% 29.89 in 10.0 mi East 8.1 mph - N/A   Clear
4:26 AM 37.4 °F 32.8 °F 32.0 °F 81% 29.89 in 10.0 mi ENE 5.8 mph - N/A   Clear
4:46 AM 37.4 °F 32.8 °F 32.0 °F 81% 29.89 in 10.0 mi East 5.8 mph - N/A   Clear
5:06 AM 37.4 °F 31.4 °F 32.0 °F 81% 29.89 in 10.0 mi ENE 8.1 mph - N/A   Clear
5:26 AM 37.4 °F 32.1 °F 32.0 °F 81% 29.89 in 10.0 mi ENE 6.9 mph - N/A   Clear
5:46 AM 37.4 °F 31.4 °F 32.0 °F 81% 29.88 in 10.0 mi ENE 8.1 mph - N/A   Clear
6:06 AM 37.4 °F 31.4 °F 32.0 °F 81% 29.88 in 10.0 mi ENE 8.1 mph - N/A   Clear
6:26 AM 37.4 °F 32.1 °F 32.0 °F 81% 29.88 in 10.0 mi ENE 6.9 mph - N/A   Clear
6:47 AM 37.4 °F 31.4 °F 32.0 °F 81% 29.87 in 10.0 mi ENE 8.1 mph - N/A   Clear
7:07 AM 37.4 °F 31.4 °F 30.2 °F 75% 29.87 in 10.0 mi ENE 8.1 mph - N/A   Clear
7:27 AM 37.4 °F 30.8 °F 30.2 °F 75% 29.87 in 10.0 mi ENE 9.2 mph - N/A   Scattered Clouds
7:47 AM 37.4 °F 31.4 °F 30.2 °F 75% 29.86 in 10.0 mi East 8.1 mph - N/A   Scattered Clouds
8:27 AM 37.4 °F 32.1 °F 30.2 °F 75% 29.86 in 10.0 mi ENE 6.9 mph - N/A   Clear
8:47 AM 41.0 °F 36.4 °F 32.0 °F 70% 29.88 in 10.0 mi ENE 6.9 mph - N/A   Clear
9:07 AM 41.0 °F 36.4 °F 32.0 °F 70% 29.87 in 10.0 mi East 6.9 mph - N/A   Clear
9:27 AM 41.0 °F 35.8 °F 32.0 °F 70% 29.87 in 10.0 mi East 8.1 mph - N/A   Clear
9:47 AM 41.0 °F 35.2 °F 32.0 °F 70% 29.85 in 10.0 mi ENE 9.2 mph 16.1 mph N/A   Clear
10:07 AM 41.0 °F 35.2 °F 32.0 °F 70% 29.85 in 10.0 mi East 9.2 mph - N/A   Clear
10:27 AM 42.8 °F 38.6 °F 32.0 °F 66% 29.86 in 10.0 mi East 6.9 mph - N/A   Clear
11:07 AM 42.8 °F 38.0 °F 32.0 °F 66% 29.84 in 10.0 mi East 8.1 mph - N/A   Clear
11:27 AM 44.6 °F 39.2 °F 32.0 °F 61% 29.82 in 10.0 mi East 10.4 mph - N/A   Clear
11:47 AM 44.6 °F 40.7 °F 33.8 °F 66% 29.80 in 10.0 mi East 6.9 mph - N/A   Clear
12:07 PM 44.6 °F 40.7 °F 33.8 °F 66% 29.80 in 10.0 mi East 6.9 mph - N/A   Clear
12:27 PM 46.4 °F 43.5 °F 35.6 °F 66% 29.79 in 10.0 mi East 5.8 mph - N/A   Clear
12:47 PM 46.4 °F 42.9 °F 37.4 °F 71% 29.76 in 10.0 mi ESE 6.9 mph - N/A   Clear
1:07 PM 46.4 °F 43.5 °F 37.4 °F 71% 29.74 in 10.0 mi ESE 5.8 mph - N/A   Clear
1:27 PM 46.4 °F 42.9 °F 37.4 °F 71% 29.73 in 10.0 mi ESE 6.9 mph - N/A   Clear
1:47 PM 48.2 °F - 37.4 °F 66% 29.71 in 10.0 mi East 6.9 mph - N/A   Clear
2:07 PM 46.4 °F 42.4 °F 37.4 °F 71% 29.69 in 10.0 mi East 8.1 mph - N/A   Clear
2:27 PM 46.4 °F 44.3 °F 41.0 °F 81% 29.69 in 10.0 mi East 4.6 mph - N/A   Mostly Cloudy
2:47 PM 46.4 °F 44.3 °F 41.0 °F 81% 29.67 in 10.0 mi East 4.6 mph - N/A   Mostly Cloudy
3:07 PM - - - N/A% - - North - - N/A   Unknown
3:28 PM - - - N/A% - - North - - N/A   Unknown
3:48 PM 42.8 °F 40.1 °F 37.4 °F 81% 29.65 in 10.0 mi ENE 4.6 mph - N/A   Mostly Cloudy
4:08 PM - - - N/A% 29.65 in - ENE 3.5 mph - N/A   Unknown
4:28 PM - - - N/A% 29.64 in - ENE 4.6 mph - N/A   Unknown
4:48 PM - - - N/A% 29.64 in - ENE 3.5 mph - N/A   Unknown
5:08 PM 41.0 °F 39.0 °F 37.4 °F 87% 29.63 in 1.8 mi NNE 3.5 mph - N/A   Overcast
5:28 PM 41.0 °F 38.0 °F 37.4 °F 87% 29.63 in 1.8 mi North 4.6 mph - N/A   Overcast
5:48 PM 41.0 °F 37.1 °F 37.4 °F 87% 29.63 in 2.5 mi NNE 5.8 mph - N/A   Overcast
6:08 PM 39.2 °F 34.2 °F 35.6 °F 87% 29.63 in 2.5 mi North 6.9 mph - N/A   Overcast
6:28 PM 39.2 °F 33.6 °F 37.4 °F 93% 29.64 in 3.0 mi North 8.1 mph - N/A   Overcast
6:48 PM 39.2 °F 33.6 °F 37.4 °F 93% 29.64 in 4.0 mi North 8.1 mph - N/A   Overcast
7:08 PM 39.2 °F 34.2 °F 37.4 °F 93% 29.64 in 3.0 mi North 6.9 mph - N/A   Overcast
7:28 PM 39.2 °F 33.0 °F 37.4 °F 93% 29.63 in 4.0 mi North 9.2 mph - N/A   Overcast
7:48 PM 39.2 °F 33.6 °F 37.4 °F 93% 29.65 in 4.0 mi North 8.1 mph - N/A   Overcast
8:08 PM 39.2 °F 34.2 °F 37.4 °F 93% 29.65 in 3.0 mi North 6.9 mph - N/A   Overcast
8:28 PM 37.4 °F 30.8 °F 37.4 °F 100% 29.65 in 3.0 mi North 9.2 mph - N/A   Overcast
8:48 PM 37.4 °F 29.8 °F 35.6 °F 93% 29.65 in 5.0 mi North 11.5 mph 18.4 mph N/A   Overcast
9:08 PM 35.6 °F 28.6 °F 33.8 °F 93% 29.66 in 5.0 mi North 9.2 mph - N/A   Overcast
9:28 PM 35.6 °F 28.6 °F 33.8 °F 93% 29.67 in 5.0 mi North 9.2 mph - N/A   Overcast
9:48 PM 35.6 °F 28.0 °F 33.8 °F 93% 29.68 in 5.0 mi North 10.4 mph - N/A   Overcast
10:08 PM 35.6 °F 28.6 °F 33.8 °F 93% 29.69 in 5.0 mi NNW 9.2 mph - N/A   Overcast
10:28 PM 35.6 °F 29.2 °F 33.8 °F 93% 29.70 in 7.0 mi NNW 8.1 mph - N/A   Overcast
11:08 PM 35.6 °F 28.0 °F 33.8 °F 93% 29.71 in 7.0 mi NNW 10.4 mph - N/A   Overcast
11:28 PM 35.6 °F 28.0 °F 33.8 °F 93% 29.74 in 7.0 mi NW 10.4 mph 17.3 mph N/A   Overcast
11:49 PM 35.6 °F 28.6 °F 33.8 °F 93% 29.74 in 5.0 mi NW 9.2 mph 18.4 mph N/A   Overcast